Woodward, OK

5:52 PM CST on February 07, 2016 (GMT -0600)
West Woodward

Weather History for KWWR - January, 2014

Change the Weather History Date:

Wednesday, January 15, 2014

  Actual Average (KGAG) Record (KGAG)
Temperature  
Mean Temperature 42 °F -  
Max Temperature 59 °F 51 °F 75 °F (2006)
Min Temperature 24 °F 22 °F -5 °F (1972)
Degree Days  
Heating Degree Days 24    
Moisture  
Dew Point 21 °F    
Average Humidity 50    
Maximum Humidity 80    
Minimum Humidity 22    
Precipitation  
Precipitation 0.00 in - - ()
Sea Level Pressure  
Sea Level Pressure 30.18 in    
Wind  
Wind Speed 9 mph (SW)    
Max Wind Speed 18 mph    
Max Gust Speed 26 mph    
Visibility 10 miles    
Events      
Averages and records for this station are not official NWS values.
T = Trace of Precipitation, MM = Missing Value Source: NWS Daily Summary

Daily Weather History Graph

Daily Weather History Graph

Search for Another Location

Airport or City:

Trip Planner

Search our weather history database for the weather conditions in past years. The results will help you decide how hot, cold, wet, or windy it might be!

Date:

Astronomy

Jan. 15, 2014 Rise Set
Actual Time 7:48 AM CST 5:46 PM CST
Civil Twilight 7:20 AM CST 6:14 PM CST
Nautical Twilight 6:49 AM CST 6:46 PM CST
Astronomical Twilight 6:18 AM CST 7:17 PM CST
Moon 5:43 PM CST (1/15) 7:07 AM CST (1/15)
Length of Visible Light 10h 53m
Length of Day
9h 57m
Full, 100% of the Moon is Illuminated
Jan 15
Full
Jan 15
Full
Jan 23
Last Quarter
Jan 30
New
Feb 6
First Quarter

Hourly Weather History & Observations

Time (CST) Temp. Windchill Dew Point Humidity Pressure Visibility Wind Dir Wind Speed Gust Speed Precip Events Conditions
12:15 AM 32.0 °F 27.5 °F 23.0 °F 69% 30.37 in 10.0 mi WNW 4.6 mph - N/A   Scattered Clouds
12:35 AM 33.8 °F 28.6 °F 23.0 °F 65% 30.36 in 10.0 mi NW 5.8 mph - N/A   Clear
12:55 AM 33.8 °F 27.7 °F 23.0 °F 65% 30.37 in 10.0 mi NW 6.9 mph - N/A   Scattered Clouds
1:15 AM 33.8 °F 29.6 °F 23.0 °F 65% 30.36 in 10.0 mi WNW 4.6 mph - N/A   Scattered Clouds
1:35 AM 33.8 °F 28.6 °F 23.0 °F 65% 30.37 in 10.0 mi West 5.8 mph - N/A   Clear
1:55 AM 32.0 °F 24.8 °F 23.0 °F 69% 30.37 in 10.0 mi West 8.1 mph - N/A   Clear
2:15 AM 32.0 °F 25.6 °F 23.0 °F 69% 30.37 in 10.0 mi West 6.9 mph - N/A   Scattered Clouds
2:35 AM 32.0 °F 25.6 °F 23.0 °F 69% 30.37 in 10.0 mi West 6.9 mph - N/A   Clear
2:55 AM 30.2 °F 24.3 °F 21.2 °F 69% 30.37 in 10.0 mi WSW 5.8 mph - N/A   Clear
3:15 AM 30.2 °F 24.3 °F 21.2 °F 69% 30.36 in 10.0 mi SW 5.8 mph - N/A   Clear
3:35 AM 30.2 °F 21.9 °F 21.2 °F 69% 30.36 in 10.0 mi SW 9.2 mph - N/A   Clear
3:55 AM 30.2 °F 22.6 °F 21.2 °F 69% 30.36 in 10.0 mi WSW 8.1 mph - N/A   Clear
4:15 AM 28.4 °F 19.7 °F 21.2 °F 74% 30.35 in 10.0 mi SW 9.2 mph - N/A   Clear
4:35 AM 28.4 °F 21.2 °F 21.2 °F 74% 30.34 in 10.0 mi WSW 6.9 mph - N/A   Clear
4:55 AM 28.4 °F 19.7 °F 19.4 °F 69% 30.34 in 10.0 mi West 9.2 mph - N/A   Clear
5:15 AM 26.6 °F 19.1 °F 19.4 °F 74% 30.33 in 10.0 mi WSW 6.9 mph - N/A   Scattered Clouds
5:35 AM 26.6 °F 19.1 °F 19.4 °F 74% 30.33 in 10.0 mi West 6.9 mph - N/A   Scattered Clouds
5:55 AM 26.6 °F 18.2 °F 19.4 °F 74% 30.33 in 10.0 mi West 8.1 mph - N/A   Clear
6:15 AM 26.6 °F 17.5 °F 19.4 °F 74% 30.33 in 10.0 mi WSW 9.2 mph - N/A   Clear
6:35 AM 24.8 °F 17.9 °F 19.4 °F 80% 30.33 in 10.0 mi West 5.8 mph - N/A   Clear
6:55 AM 26.6 °F 19.1 °F 19.4 °F 74% 30.32 in 10.0 mi SW 6.9 mph - N/A   Clear
7:15 AM 26.6 °F 17.5 °F 19.4 °F 74% 30.32 in 10.0 mi SW 9.2 mph - N/A   Clear
7:35 AM 26.6 °F 17.5 °F 19.4 °F 74% 30.32 in 10.0 mi SW 9.2 mph - N/A   Clear
7:55 AM 26.6 °F 16.8 °F 19.4 °F 74% 30.32 in 10.0 mi SW 10.4 mph - N/A   Clear
8:15 AM 26.6 °F 16.8 °F 19.4 °F 74% 30.32 in 10.0 mi SW 10.4 mph - N/A   Clear
8:35 AM 28.4 °F 19.7 °F 19.4 °F 69% 30.31 in 10.0 mi SW 9.2 mph - N/A   Clear
8:55 AM 32.0 °F 24.2 °F 21.2 °F 64% 30.31 in 10.0 mi SW 9.2 mph - N/A   Clear
9:15 AM 32.0 °F 23.6 °F 19.4 °F 60% 30.31 in 10.0 mi SW 10.4 mph - N/A   Clear
9:35 AM 35.6 °F 29.2 °F 21.2 °F 56% 30.31 in 10.0 mi SW 8.1 mph - N/A   Clear
9:55 AM 37.4 °F 30.3 °F 21.2 °F 52% 30.30 in 10.0 mi SW 10.4 mph - N/A   Clear
10:15 AM 37.4 °F 28.2 °F 21.2 °F 52% 30.29 in 10.0 mi SW 16.1 mph - N/A   Clear
10:35 AM 41.0 °F 33.5 °F 21.2 °F 45% 30.29 in 10.0 mi SW 13.8 mph - N/A   Clear
10:55 AM 42.8 °F 35.1 °F 23.0 °F 46% 30.28 in 10.0 mi WSW 16.1 mph 21.9 mph N/A   Clear
11:15 AM 44.6 °F 37.2 °F 23.0 °F 43% 30.27 in 10.0 mi WSW 17.3 mph 23.0 mph N/A   Clear
11:35 AM 46.4 °F 39.5 °F 21.2 °F 37% 30.26 in 10.0 mi WSW 17.3 mph 23.0 mph N/A   Clear
11:55 AM 50.0 °F - 21.2 °F 32% 30.23 in 10.0 mi WSW 18.4 mph - N/A   Clear
12:15 PM 51.8 °F - 21.2 °F 30% 30.20 in 10.0 mi WSW 15.0 mph 23.0 mph N/A   Clear
12:35 PM 51.8 °F - 21.2 °F 30% 30.19 in 10.0 mi WSW 15.0 mph - N/A   Clear
12:55 PM 53.6 °F - 21.2 °F 28% 30.17 in 10.0 mi WSW 18.4 mph 24.2 mph N/A   Clear
1:15 PM 55.4 °F - 21.2 °F 26% 30.15 in 10.0 mi WSW 17.3 mph 26.5 mph N/A   Clear
1:35 PM 57.2 °F - 19.4 °F 23% 30.12 in 10.0 mi West 15.0 mph - N/A   Clear
1:55 PM 55.4 °F - 19.4 °F 25% 30.11 in 10.0 mi WSW 13.8 mph 24.2 mph N/A   Clear
2:15 PM 59.0 °F - 19.4 °F 22% 30.10 in 10.0 mi SW 15.0 mph 23.0 mph N/A   Clear
2:35 PM 57.2 °F - 19.4 °F 23% 30.09 in 10.0 mi WSW 15.0 mph 20.7 mph N/A   Clear
2:55 PM 59.0 °F - 19.4 °F 22% 30.09 in 10.0 mi WSW 12.7 mph 19.6 mph N/A   Clear
3:15 PM 59.0 °F - 19.4 °F 22% 30.08 in 10.0 mi West 13.8 mph - N/A   Clear
3:35 PM 59.0 °F - 19.4 °F 22% 30.07 in 10.0 mi West 11.5 mph - N/A   Clear
3:55 PM 59.0 °F - 19.4 °F 22% 30.07 in 10.0 mi WSW 15.0 mph 19.6 mph N/A   Clear
4:15 PM 59.0 °F - 19.4 °F 22% 30.06 in 10.0 mi WSW 13.8 mph - N/A   Clear
4:35 PM 55.4 °F - 19.4 °F 25% 30.05 in 10.0 mi WSW 16.1 mph - N/A   Clear
4:55 PM 55.4 °F - 19.4 °F 25% 30.04 in 10.0 mi WSW 12.7 mph - N/A   Clear
5:15 PM 51.8 °F - 19.4 °F 28% 30.02 in 10.0 mi SW 9.2 mph - N/A   Clear
5:35 PM 50.0 °F - 19.4 °F 30% 30.01 in 10.0 mi SSW 8.1 mph - N/A   Clear
5:55 PM 46.4 °F 42.9 °F 19.4 °F 34% 30.01 in 10.0 mi SSW 6.9 mph - N/A   Clear
6:15 PM 44.6 °F 40.2 °F 19.4 °F 37% 30.00 in 10.0 mi SSW 8.1 mph - N/A   Clear
6:35 PM 42.8 °F 38.0 °F 19.4 °F 39% 30.00 in 10.0 mi SSW 8.1 mph - N/A   Clear
6:55 PM 44.6 °F 40.2 °F 19.4 °F 37% 30.00 in 10.0 mi SSW 8.1 mph - N/A   Clear
7:15 PM 44.6 °F 40.2 °F 19.4 °F 37% 30.00 in 10.0 mi SSW 8.1 mph - N/A   Clear
7:35 PM 44.6 °F 39.7 °F 21.2 °F 39% 30.00 in 10.0 mi SSW 9.2 mph - N/A   Clear
7:55 PM 44.6 °F 40.7 °F 21.2 °F 39% 30.00 in 10.0 mi SW 6.9 mph - N/A   Clear
8:15 PM 42.8 °F 37.5 °F 21.2 °F 42% 29.99 in 10.0 mi SW 9.2 mph - N/A   Clear
8:35 PM 41.0 °F 35.2 °F 21.2 °F 45% 29.99 in 10.0 mi SW 9.2 mph - N/A   Clear
8:55 PM 39.2 °F 32.0 °F 21.2 °F 49% 29.99 in 10.0 mi SW 11.5 mph - N/A   Clear
9:15 PM 41.0 °F 34.7 °F 21.2 °F 45% 29.99 in 10.0 mi SW 10.4 mph - N/A   Clear
9:35 PM 39.2 °F 33.0 °F 21.2 °F 49% 29.99 in 10.0 mi SW 9.2 mph - N/A   Clear
9:55 PM 41.0 °F 33.9 °F 21.2 °F 45% 29.99 in 10.0 mi SW 12.7 mph - N/A   Clear
10:15 PM 41.0 °F 34.7 °F 21.2 °F 45% 29.98 in 10.0 mi SW 10.4 mph - N/A   Clear
10:35 PM 39.2 °F 32.0 °F 21.2 °F 49% 29.99 in 10.0 mi SW 11.5 mph - N/A   Clear
10:55 PM 41.0 °F 33.9 °F 21.2 °F 45% 29.99 in 10.0 mi SW 12.7 mph - N/A   Clear
11:15 PM 39.2 °F 32.0 °F 21.2 °F 49% 29.99 in 10.0 mi SW 11.5 mph - N/A   Clear
11:35 PM 37.4 °F 29.8 °F 21.2 °F 52% 29.98 in 10.0 mi SW 11.5 mph - N/A   Clear
11:55 PM 37.4 °F 30.3 °F 23.0 °F 56% 29.97 in 10.0 mi SW 10.4 mph - N/A   Clear